Location: Monteux
(44.0348°N, 4.9972°E)
Time: 17:02:18
(UTC+00:00)

ADEOS Rocket - Pass Details

Date: 30 November 2020
Orbit: 859 x 1306 km, 98.7° (Epoch: 17 January)

Event Time Altitude Azimuth Distance (km) Brightness Sun altitude
Rises 16:57:07 0° 10° (N) 4,261 6.0 -9.5°
Reaches altitude 10° 16:59:50 10° 8° (N) 3,313 5.5 -10.0°
Maximum altitude 17:07:26 61° 291° (WNW) 1,460 4.2 -11.3°
Drops below altitude 10° 17:14:57 10° 213° (SSW) 3,266 6.5 -12.6°
Sets 17:17:36 0° 210° (SSW) 4,197 7.1 -13.0°
